TimeEST,TemperatureF,Dew PointF,Humidity,Sea Level PressureIn,VisibilityMPH,Wind Direction,Wind SpeedMPH,Gust SpeedMPH,PrecipitationIn,Events,Conditions,WindDirDegrees,DateUTC
12:53 AM,30.9,17.1,57,30.23,10.0,Variable,4.6,-,N/A,,Overcast,0,2012-11-30 05:53:00
1:53 AM,30.0,10.9,45,30.26,10.0,NNW,8.1,16.1,N/A,,Overcast,330,2012-11-30 06:53:00
2:53 AM,27.0,7.0,43,30.30,10.0,Variable,5.8,-,N/A,,Scattered Clouds,0,2012-11-30 07:53:00
3:53 AM,24.1,1.9,38,30.35,10.0,Variable,4.6,-,N/A,,Clear,0,2012-11-30 08:53:00
4:53 AM,21.0,5.0,50,30.39,10.0,NNW,4.6,-,N/A,,Clear,330,2012-11-30 09:53:00
5:53 AM,19.9,3.9,50,30.43,10.0,WNW,3.5,-,N/A,,Clear,300,2012-11-30 10:53:00
6:53 AM,19.0,1.9,47,30.47,10.0,NW,3.5,-,N/A,,Clear,310,2012-11-30 11:53:00
7:53 AM,18.0,1.9,50,30.49,10.0,Variable,4.6,-,N/A,,Clear,0,2012-11-30 12:53:00
8:53 AM,19.0,1.0,46,30.50,10.0,Variable,6.9,-,N/A,,Clear,0,2012-11-30 13:53:00
9:53 AM,19.9,-0.9,40,30.51,10.0,Variable,5.8,-,N/A,,Clear,0,2012-11-30 14:53:00
10:53 AM,21.9,-0.9,37,30.51,10.0,Calm,Calm,-,N/A,,Clear,0,2012-11-30 15:53:00
11:53 AM,24.1,-2.9,31,30.50,10.0,Calm,Calm,-,N/A,,Clear,0,2012-11-30 16:53:00
12:53 PM,27.0,-2.9,27,30.50,10.0,Variable,3.5,-,N/A,,Clear,0,2012-11-30 17:53:00
1:53 PM,27.0,-4.0,26,30.50,10.0,Variable,6.9,-,N/A,,Clear,0,2012-11-30 18:53:00
2:53 PM,27.0,-2.9,27,30.51,10.0,Variable,4.6,-,N/A,,Clear,0,2012-11-30 19:53:00
3:53 PM,25.0,-2.9,30,30.53,10.0,Calm,Calm,-,N/A,,Clear,0,2012-11-30 20:53:00
4:53 PM,19.9,1.9,46,30.55,10.0,Calm,Calm,-,N/A,,Clear,0,2012-11-30 21:53:00
5:53 PM,18.0,3.9,54,30.56,10.0,Calm,Calm,-,N/A,,Clear,0,2012-11-30 22:53:00
6:53 PM,16.0,5.0,62,30.58,10.0,Calm,Calm,-,N/A,,Clear,0,2012-11-30 23:53:00
7:53 PM,15.1,5.0,64,30.60,10.0,Calm,Calm,-,N/A,,Clear,0,2012-12-01 00:53:00
8:53 PM,14.0,6.1,71,30.61,10.0,Calm,Calm,-,N/A,,Clear,0,2012-12-01 01:53:00
9:53 PM,12.9,6.1,74,30.61,10.0,Calm,Calm,-,N/A,,Clear,0,2012-12-01 02:53:00
10:53 PM,14.0,6.1,71,30.62,10.0,Calm,Calm,-,N/A,,Clear,0,2012-12-01 03:53:00
11:53 PM,12.9,5.0,71,30.63,10.0,Calm,Calm,-,N/A,,Clear,0,2012-12-01 04:53:00